Regional Weather Roundup
Issued by NWS

Home | Current Version | Previous Version | Graphics & Text | Print | Product List | Glossary On
Versions: 1 2 3 4 5 6 7 8 9 10 11 12 13 14 15 16 17 18 19 20 21 22 23 24 25 26 27 28 29 30 31 32 33 34 35 36 37 38 39 40 41 42 43 44 45 46 47 48 49 50
000
ASUS43 KOAX 020402
RWRNE

WEATHER ROUNDUP FOR NEBRASKA
NATIONAL WEATHER SERVICE OMAHA NE
1100 PM CDT TUE SEP 01 2015

NOTES: SATELLITE DATA IS BEING USED TO AUGMENT CLOUD COVER ABOVE
       12000 FEET.
       "FAIR" INDICATES FEW OR NO CLOUDS BELOW 12,000 FEET WITH NO
       SIGNIFICANT WEATHER AND/OR OBSTRUCTIONS TO VISIBILITY.

  * THESE STATIONS DO NOT REPORT WEATHER SUCH AS RAIN...SNOW OR FOG.

NEZ001>004-019>022-054>056-020500-
NEBRASKA PANHANDLE

CITY           SKY/WX    TMP DP  RH WIND       PRES   REMARKS
SCOTTSBLUFF    PTCLDY    66  52  60 E8        29.94R
ALLIANCE       PTCLDY    71  49  45 S13       29.94R
CHADRON        PTCLDY    63  47  55 CALM      29.88R
KIMBALL        CLEAR     71  41  34 SW7       30.02R
SIDNEY         CLEAR     70  46  42 S9        30.01R
$$

NEZ057>060-069>072-079>082-020500-
SOUTHWEST NEBRASKA

CITY           SKY/WX    TMP DP  RH WIND       PRES   REMARKS
NORTH PLATTE   CLEAR     66  64  93 E6        29.92R
IMPERIAL       CLEAR     73  53  49 S7        29.95R
LEXINGTON      CLEAR     74  67  78 SE3       29.92R
MC COOK        CLEAR     78  57  48 S6        29.92S
OGALLALA       CLEAR     75  50  40 S3        29.94R
$$

NEZ005>010-023>029-035>040-094-020500-
NORTH CENTRAL NEBRASKA

CITY           SKY/WX    TMP DP  RH WIND       PRES   REMARKS
VALENTINE      CLEAR     75  59  57 S9        29.87R
AINSWORTH      CLEAR     73  63  71 S9        29.89R
BROKEN BOW     CLEAR     68  64  87 CALM      29.91R
O`NEILL        CLEAR     75  66  73 SE7       29.88S
ORD            CLEAR     69  64  84 E5        29.88S
THEDFORD       CLEAR     76  65  68 S10       29.92R
$$

NEZ041-046>049-061>064-073>077-083>087-020500-
SOUTH CENTRAL NEBRASKA

CITY           SKY/WX    TMP DP  RH WIND       PRES   REMARKS
GRAND ISLAND   CLEAR     79  64  60 S13       29.91R
AURORA         CLEAR     76  66  70 S10       29.91S
HASTINGS       PTCLDY    78  64  61 S10       29.91R
HEBRON         CLEAR     80  61  52 S14G20    29.92R
HOLDREGE       FAIR      72  63  72 S5        29.91S
KEARNEY *      CLEAR     72  64  78 SE6       29.91S
YORK           CLEAR     75  66  73 S8        29.91S
$$

NEZ011>018-030>034-042>045-020500-
NORTHEAST NEBRASKA

CITY           SKY/WX    TMP DP  RH WIND       PRES   REMARKS
NORFOLK        CLEAR     73  66  78 SE6       29.89S
ALBION         CLEAR     73  66  78 SE6       29.89S
BLAIR          FAIR      78  65  64 S14G23    29.93R
COLUMBUS *     CLEAR     77  63  61 S10G17    29.89S
FREMONT        CLEAR     78  65  63 SE10G18   29.91R
TEKAMAH        CLEAR     75  69  81 SE10      29.90R
$$

NEZ050>053-065>068-078-088>093-020500-
SOUTHEAST NEBRASKA

CITY           SKY/WX    TMP DP  RH WIND       PRES   REMARKS
LINCOLN        PTCLDY    80  65  59 S16G28    29.91R
OMAHA EPPLEY   MOCLDY    81  67  62 S18       29.92R
BEATRICE       MOCLDY    80  65  61 S16G22    29.93R
FALLS CITY     CLOUDY    80  66  62 S10       29.97R
NEBRASKA CITY  CLOUDY    77  61  57 S14       29.95S
PLATTSMOUTH    MOCLDY    78  64  63 SE14G20   29.94R
$$

NEZ044-045-051>053-067-020500-
OMAHA AREA

CITY           SKY/WX    TMP DP  RH WIND       PRES   REMARKS
EPPLEY FIELD   MOCLDY    81  67  62 S18       29.92R
BLAIR          PTCLDY    78  65  64 S14G23    29.93R
FREMONT        CLEAR     78  65  63 SE10G18   29.91R
MILLARD        PTCLDY    79  68  69 SE9       29.92R
OFFUTT AFB     PTCLDY    79  67  67 SE13      29.93R
PLATTSMOUTH    MOCLDY    78  64  63 SE14G20   29.94R
WAHOO          FAIR      73  67  81 SE8       29.91R
$$


USA.gov is the U.S. government's official web portal to all federal, state and local government web resources and services.